Time,TemperatureF,DewpointF,PressureIn,WindDirection,WindDirectionDegrees,WindSpeedMPH,WindSpeedGustMPH,Humidity,HourlyPrecipIn,Conditions,Clouds,dailyrainin,SoftwareType,DateUTC
2013-03-04 00:01:00,25.0,14.0,-100.00,ENE,75,12.0,17.0,63,0.00,,,0.00,,2013-03-04 06:01:00,
2013-03-04 00:11:00,24.0,14.0,-100.00,ENE,75,11.0,17.0,63,0.00,,,0.00,,2013-03-04 06:11:00,
2013-03-04 00:21:00,25.0,14.0,-100.00,ENE,65,13.0,17.0,64,0.00,,,0.00,,2013-03-04 06:21:00,
2013-03-04 00:32:00,24.0,14.0,-100.00,East,80,13.0,20.0,65,0.00,,,0.00,,2013-03-04 06:32:00,
2013-03-04 00:42:00,24.0,16.0,-100.00,ENE,75,18.0,24.0,68,0.00,,,0.00,,2013-03-04 06:42:00,
2013-03-04 00:51:00,24.0,16.0,-100.00,ENE,75,15.0,24.0,72,0.00,,,0.00,,2013-03-04 06:51:00,
2013-03-04 01:01:00,24.0,16.0,-100.00,ENE,65,15.0,21.0,74,0.00,,,0.00,,2013-03-04 07:01:00,
2013-03-04 01:11:00,24.0,18.0,-100.00,ENE,70,17.0,24.0,75,0.00,,,0.00,,2013-03-04 07:11:00,
2013-03-04 01:21:00,23.0,18.0,-100.00,East,80,14.0,20.0,82,0.00,,,0.00,,2013-03-04 07:21:00,
2013-03-04 01:32:00,22.0,19.0,-100.00,ENE,70,13.0,19.0,87,0.00,,,0.00,,2013-03-04 07:32:00,
2013-03-04 01:41:00,22.0,19.0,-100.00,ENE,65,10.0,16.0,91,0.00,,,0.00,,2013-03-04 07:41:00,
2013-03-04 01:51:00,22.0,21.0,-100.00,ENE,65,12.0,16.0,93,0.00,,,0.00,,2013-03-04 07:51:00,
2013-03-04 02:02:00,22.0,21.0,-100.00,NE,55,15.0,19.0,94,0.00,,,0.00,,2013-03-04 08:02:00,
2013-03-04 02:11:00,22.0,21.0,-100.00,NE,55,17.0,20.0,95,0.00,,,0.00,,2013-03-04 08:11:00,
2013-03-04 02:21:00,22.0,21.0,-100.00,NE,50,17.0,22.0,97,0.00,,,0.00,,2013-03-04 08:21:00,
2013-03-04 02:31:00,22.0,21.0,-100.00,NE,50,16.0,19.0,98,0.00,,,0.00,,2013-03-04 08:31:00,
2013-03-04 02:41:00,22.0,21.0,-100.00,NE,50,19.0,24.0,97,0.00,,,0.00,,2013-03-04 08:41:00,
2013-03-04 02:52:00,22.0,21.0,-100.00,NE,45,14.0,19.0,98,0.00,,,0.00,,2013-03-04 08:52:00,
2013-03-04 03:01:00,22.0,21.0,-100.00,NE,45,15.0,21.0,98,0.00,,,0.00,,2013-03-04 09:01:00,
2013-03-04 03:11:00,22.0,21.0,-100.00,NE,50,17.0,21.0,98,0.00,,,0.00,,2013-03-04 09:11:00,
2013-03-04 03:21:00,22.0,21.0,-100.00,NE,45,17.0,22.0,98,0.00,,,0.00,,2013-03-04 09:21:00,
2013-03-04 03:32:00,22.0,21.0,-100.00,NE,40,15.0,22.0,98,0.00,,,0.00,,2013-03-04 09:32:00,
2013-03-04 03:42:00,22.0,21.0,-100.00,NE,50,16.0,21.0,98,0.00,,,0.00,,2013-03-04 09:42:00,
2013-03-04 03:51:00,22.0,21.0,-100.00,NE,55,18.0,22.0,98,0.00,,,0.00,,2013-03-04 09:51:00,
2013-03-04 04:01:00,22.0,21.0,-100.00,NE,50,16.0,24.0,99,0.00,,,0.00,,2013-03-04 10:01:00,
2013-03-04 04:11:00,22.0,21.0,-100.00,NE,45,15.0,25.0,98,0.00,,,0.00,,2013-03-04 10:11:00,
2013-03-04 04:21:00,22.0,21.0,-100.00,NE,45,19.0,24.0,99,0.00,,,0.00,,2013-03-04 10:21:00,
2013-03-04 04:32:00,22.0,21.0,-100.00,NE,50,15.0,23.0,99,0.00,,,0.00,,2013-03-04 10:32:00,
2013-03-04 04:42:00,22.0,21.0,-100.00,NE,45,17.0,21.0,99,0.00,,,0.00,,2013-03-04 10:42:00,
2013-03-04 04:52:00,22.0,21.0,-100.00,NE,40,15.0,21.0,99,0.00,,,0.00,,2013-03-04 10:52:00,
2013-03-04 05:01:00,22.0,21.0,-100.00,NE,45,16.0,22.0,99,0.00,,,0.00,,2013-03-04 11:01:00,
2013-03-04 05:11:00,22.0,21.0,-100.00,NE,40,15.0,20.0,99,0.00,,,0.00,,2013-03-04 11:11:00,
2013-03-04 05:21:00,22.0,21.0,-100.00,NE,40,15.0,24.0,99,0.00,,,0.00,,2013-03-04 11:21:00,
2013-03-04 05:32:00,22.0,21.0,-100.00,NE,45,19.0,25.0,99,0.00,,,0.00,,2013-03-04 11:32:00,
2013-03-04 05:42:00,22.0,21.0,-100.00,NE,40,16.0,23.0,99,0.00,,,0.00,,2013-03-04 11:42:00,
2013-03-04 05:52:00,22.0,21.0,-100.00,NE,35,17.0,22.0,99,0.00,,,0.00,,2013-03-04 11:52:00,
2013-03-04 06:01:00,22.0,21.0,-100.00,NE,35,17.0,24.0,99,0.00,,,0.00,,2013-03-04 12:01:00,
2013-03-04 06:11:00,22.0,21.0,-100.00,NE,40,21.0,27.0,98,0.00,,,0.00,,2013-03-04 12:11:00,
2013-03-04 06:22:00,22.0,21.0,-100.00,NE,40,17.0,27.0,98,0.00,,,0.00,,2013-03-04 12:22:00,
2013-03-04 06:32:00,22.0,21.0,-100.00,NE,40,20.0,26.0,98,0.00,,,0.00,,2013-03-04 12:32:00,
2013-03-04 06:42:00,22.0,21.0,-100.00,NE,35,17.0,25.0,98,0.00,,,0.00,,2013-03-04 12:42:00,
2013-03-04 06:52:00,22.0,21.0,-100.00,NE,45,18.0,25.0,98,0.00,,,0.00,,2013-03-04 12:52:00,
2013-03-04 07:02:00,22.0,21.0,-100.00,NE,40,19.0,23.0,98,0.00,,,0.00,,2013-03-04 13:02:00,
2013-03-04 07:11:00,22.0,21.0,-100.00,NE,40,18.0,23.0,98,0.00,,,0.00,,2013-03-04 13:11:00,
2013-03-04 07:21:00,22.0,21.0,-100.00,NE,35,20.0,24.0,98,0.00,,,0.00,,2013-03-04 13:21:00,
2013-03-04 07:32:00,22.0,21.0,-100.00,NE,40,17.0,23.0,97,0.00,,,0.00,,2013-03-04 13:32:00,
2013-03-04 07:41:00,22.0,21.0,-100.00,NE,45,18.0,22.0,97,0.00,,,0.00,,2013-03-04 13:41:00,
2013-03-04 07:51:00,22.0,21.0,-100.00,NE,40,16.0,21.0,97,0.00,,,0.00,,2013-03-04 13:51:00,
2013-03-04 08:01:00,22.0,21.0,-100.00,NE,35,17.0,21.0,97,0.00,,,0.00,,2013-03-04 14:01:00,
2013-03-04 08:11:00,22.0,21.0,-100.00,NE,35,18.0,25.0,97,0.00,,,0.00,,2013-03-04 14:11:00,
2013-03-04 08:22:00,23.0,21.0,-100.00,NE,40,21.0,27.0,97,0.00,,,0.00,,2013-03-04 14:22:00,
2013-03-04 08:32:00,23.0,21.0,-100.00,NE,45,19.0,27.0,97,0.00,,,0.00,,2013-03-04 14:32:00,
2013-03-04 08:42:00,23.0,21.0,-100.00,NE,45,20.0,26.0,97,0.00,,,0.00,,2013-03-04 14:42:00,
2013-03-04 09:21:00,24.0,23.0,-100.00,NE,45,18.0,24.0,95,0.00,,,0.00,,2013-03-04 15:21:00,
2013-03-04 09:32:00,24.0,23.0,-100.00,NE,40,17.0,23.0,94,0.00,,,0.00,,2013-03-04 15:32:00,
2013-03-04 09:42:00,24.0,23.0,-100.00,NE,40,17.0,26.0,94,0.00,,,0.00,,2013-03-04 15:42:00,
2013-03-04 09:51:00,24.0,23.0,-100.00,NE,40,18.0,25.0,94,0.00,,,0.00,,2013-03-04 15:51:00,
2013-03-04 10:02:00,24.0,23.0,-100.00,NE,40,19.0,24.0,94,0.00,,,0.00,,2013-03-04 16:02:00,
2013-03-04 10:11:00,24.0,23.0,-100.00,NE,50,22.0,29.0,93,0.00,,,0.00,,2013-03-04 16:11:00,
2013-03-04 10:21:00,24.0,23.0,-100.00,NE,40,21.0,26.0,93,0.00,,,0.00,,2013-03-04 16:21:00,
2013-03-04 10:31:00,25.0,23.0,-100.00,NE,40,19.0,26.0,93,0.00,,,0.00,,2013-03-04 16:31:00,
2013-03-04 10:42:00,25.0,23.0,-100.00,NE,40,22.0,26.0,93,0.00,,,0.00,,2013-03-04 16:42:00,
2013-03-04 10:52:00,25.0,23.0,-100.00,NE,50,22.0,30.0,93,0.00,,,0.00,,2013-03-04 16:52:00,
2013-03-04 11:02:00,26.0,23.0,-100.00,NE,45,19.0,26.0,92,0.00,,,0.00,,2013-03-04 17:02:00,
2013-03-04 11:11:00,26.0,23.0,-100.00,NE,45,23.0,29.0,92,0.00,,,0.00,,2013-03-04 17:11:00,
2013-03-04 11:22:00,26.0,25.0,-100.00,NE,40,21.0,24.0,92,0.00,,,0.00,,2013-03-04 17:22:00,
2013-03-04 11:32:00,26.0,25.0,-100.00,NE,45,20.0,26.0,92,0.00,,,0.00,,2013-03-04 17:32:00,
2013-03-04 11:42:00,27.0,25.0,-100.00,NE,45,17.0,27.0,91,0.00,,,0.00,,2013-03-04 17:42:00,
2013-03-04 11:52:00,27.0,25.0,-100.00,NE,45,19.0,24.0,91,0.00,,,0.00,,2013-03-04 17:52:00,
2013-03-04 12:01:00,27.0,25.0,-100.00,NE,50,19.0,23.0,90,0.00,,,0.00,,2013-03-04 18:01:00,
2013-03-04 12:11:00,28.0,25.0,-100.00,NE,50,14.0,26.0,89,0.00,,,0.00,,2013-03-04 18:11:00,
2013-03-04 12:21:00,27.0,25.0,-100.00,NE,55,21.0,30.0,90,0.00,,,0.00,,2013-03-04 18:21:00,
2013-03-04 12:32:00,28.0,25.0,-100.00,NE,55,24.0,30.0,89,0.00,,,0.00,,2013-03-04 18:32:00,
2013-03-04 12:42:00,28.0,25.0,-100.00,NE,45,21.0,28.0,89,0.00,,,0.00,,2013-03-04 18:42:00,
2013-03-04 12:52:00,29.0,25.0,-100.00,NE,55,17.0,24.0,87,0.00,,,0.00,,2013-03-04 18:52:00,
2013-03-04 13:01:00,28.0,25.0,-100.00,NE,50,21.0,28.0,89,0.00,,,0.00,,2013-03-04 19:01:00,
2013-03-04 13:11:00,28.0,25.0,-100.00,NE,50,22.0,26.0,88,0.00,,,0.00,,2013-03-04 19:11:00,
2013-03-04 13:21:00,28.0,25.0,-100.00,NE,50,21.0,27.0,88,0.00,,,0.00,,2013-03-04 19:21:00,
2013-03-04 13:32:00,28.0,25.0,-100.00,NE,40,21.0,27.0,89,0.00,,,0.00,,2013-03-04 19:32:00,
2013-03-04 13:42:00,27.0,25.0,-100.00,NE,55,22.0,30.0,89,0.00,,,0.00,,2013-03-04 19:42:00,
2013-03-04 13:51:00,28.0,25.0,-100.00,NE,50,21.0,26.0,87,0.00,,,0.00,,2013-03-04 19:51:00,
2013-03-04 14:01:00,28.0,25.0,-100.00,NE,50,18.0,23.0,86,0.00,,,0.00,,2013-03-04 20:01:00,
2013-03-04 14:11:00,28.0,25.0,-100.00,NE,55,18.0,24.0,87,0.00,,,0.00,,2013-03-04 20:11:00,
2013-03-04 14:22:00,28.0,25.0,-100.00,ENE,60,19.0,24.0,87,0.00,,,0.00,,2013-03-04 20:22:00,
2013-03-04 14:32:00,28.0,25.0,-100.00,ENE,60,16.0,22.0,87,0.00,,,0.00,,2013-03-04 20:32:00,
2013-03-04 14:42:00,28.0,25.0,-100.00,NE,55,16.0,24.0,86,0.00,,,0.00,,2013-03-04 20:42:00,
2013-03-04 14:52:00,28.0,25.0,-100.00,NE,55,17.0,22.0,87,0.00,,,0.00,,2013-03-04 20:52:00,
2013-03-04 15:02:00,28.0,25.0,-100.00,NE,50,17.0,21.0,86,0.00,,,0.00,,2013-03-04 21:02:00,
2013-03-04 15:11:00,28.0,25.0,-100.00,NE,50,16.0,22.0,87,0.00,,,0.00,,2013-03-04 21:11:00,
2013-03-04 15:21:00,28.0,25.0,-100.00,ENE,60,12.0,17.0,87,0.00,,,0.00,,2013-03-04 21:21:00,
2013-03-04 15:32:00,28.0,25.0,-100.00,NE,55,12.0,17.0,87,0.00,,,0.00,,2013-03-04 21:32:00,
2013-03-04 15:42:00,28.0,25.0,-100.00,NE,45,11.0,18.0,88,0.00,,,0.00,,2013-03-04 21:42:00,
2013-03-04 15:52:00,28.0,25.0,-100.00,NE,40,13.0,20.0,88,0.00,,,0.00,,2013-03-04 21:52:00,
2013-03-04 16:01:00,28.0,25.0,-100.00,NE,45,14.0,17.0,87,0.00,,,0.00,,2013-03-04 22:01:00,
2013-03-04 16:12:00,28.0,25.0,-100.00,NE,40,12.0,19.0,87,0.00,,,0.00,,2013-03-04 22:12:00,
2013-03-04 16:22:00,28.0,25.0,-100.00,NE,50,13.0,17.0,88,0.00,,,0.00,,2013-03-04 22:22:00,
2013-03-04 16:32:00,28.0,25.0,-100.00,NE,45,14.0,18.0,87,0.00,,,0.00,,2013-03-04 22:32:00,
2013-03-04 16:42:00,28.0,25.0,-100.00,NE,45,14.0,19.0,87,0.00,,,0.00,,2013-03-04 22:42:00,
2013-03-04 16:52:00,28.0,25.0,-100.00,NNE,25,12.0,19.0,89,0.00,,,0.00,,2013-03-04 22:52:00,
2013-03-04 17:01:00,28.0,25.0,-100.00,NE,40,13.0,16.0,89,0.00,,,0.00,,2013-03-04 23:01:00,
2013-03-04 17:11:00,28.0,25.0,-100.00,NE,45,10.0,16.0,89,0.00,,,0.00,,2013-03-04 23:11:00,
2013-03-04 17:21:00,27.0,25.0,-100.00,NNE,30,12.0,17.0,88,0.00,,,0.00,,2013-03-04 23:21:00,
2013-03-04 17:32:00,27.0,25.0,-100.00,NE,35,14.0,17.0,88,0.00,,,0.00,,2013-03-04 23:32:00,
2013-03-04 17:42:00,27.0,25.0,-100.00,NE,35,11.0,16.0,89,0.00,,,0.00,,2013-03-04 23:42:00,
2013-03-04 17:52:00,27.0,25.0,-100.00,NE,40,11.0,16.0,88,0.00,,,0.00,,2013-03-04 23:52:00,
2013-03-04 18:02:00,27.0,25.0,-100.00,NNE,30,11.0,16.0,88,0.00,,,0.00,,2013-03-05 00:02:00,
2013-03-04 18:11:00,27.0,25.0,-100.00,NE,40,13.0,19.0,88,0.00,,,0.00,,2013-03-05 00:11:00,
2013-03-04 18:21:00,27.0,25.0,-100.00,NE,35,13.0,17.0,88,0.00,,,0.00,,2013-03-05 00:21:00,
2013-03-04 18:32:00,27.0,25.0,-100.00,NNE,25,11.0,16.0,88,0.00,,,0.00,,2013-03-05 00:32:00,
2013-03-04 18:42:00,27.0,25.0,-100.00,NE,35,12.0,16.0,89,0.00,,,0.00,,2013-03-05 00:42:00,
2013-03-04 18:51:00,27.0,25.0,-100.00,NE,35,14.0,19.0,89,0.00,,,0.00,,2013-03-05 00:51:00,
2013-03-04 19:01:00,27.0,25.0,-100.00,NNE,30,13.0,19.0,90,0.00,,,0.00,,2013-03-05 01:01:00,
2013-03-04 19:12:00,27.0,23.0,-100.00,NE,35,13.0,17.0,88,0.00,,,0.00,,2013-03-05 01:12:00,
2013-03-04 19:21:00,27.0,23.0,-100.00,NE,40,12.0,16.0,87,0.00,,,0.00,,2013-03-05 01:21:00,
2013-03-04 19:32:00,27.0,23.0,-100.00,NE,45,12.0,17.0,88,0.00,,,0.00,,2013-03-05 01:32:00,
2013-03-04 19:41:00,27.0,25.0,-100.00,NE,45,12.0,15.0,89,0.00,,,0.00,,2013-03-05 01:41:00,
2013-03-04 19:51:00,26.0,25.0,-100.00,NE,55,10.0,14.0,91,0.00,,,0.00,,2013-03-05 01:51:00,
2013-03-04 20:01:00,26.0,25.0,-100.00,NE,55,9.0,14.0,94,0.00,,,0.00,,2013-03-05 02:01:00,
2013-03-04 20:11:00,26.0,25.0,-100.00,NE,50,8.0,12.0,96,0.00,,,0.00,,2013-03-05 02:11:00,
2013-03-04 20:21:00,26.0,25.0,-100.00,NE,35,9.0,12.0,99,0.00,,,0.00,,2013-03-05 02:21:00,
2013-03-04 20:32:00,26.0,25.0,-100.00,NE,40,7.0,11.0,99,0.00,,,0.00,,2013-03-05 02:32:00,
2013-03-04 20:42:00,26.0,25.0,-100.00,NE,35,7.0,9.0,99,0.00,,,0.00,,2013-03-05 02:42:00,
2013-03-04 20:52:00,26.0,25.0,-100.00,NE,40,7.0,9.0,99,0.00,,,0.00,,2013-03-05 02:52:00,
2013-03-04 21:02:00,26.0,25.0,-100.00,NE,40,4.0,7.0,99,0.00,,,0.00,,2013-03-05 03:02:00,
2013-03-04 21:12:00,26.0,25.0,-100.00,NE,55,3.0,6.0,99,0.00,,,0.00,,2013-03-05 03:12:00,
2013-03-04 21:22:00,26.0,25.0,-100.00,ENE,60,6.0,9.0,99,0.00,,,0.00,,2013-03-05 03:22:00,
2013-03-04 21:32:00,26.0,25.0,-100.00,NE,55,6.0,9.0,99,0.00,,,0.00,,2013-03-05 03:32:00,
2013-03-04 21:42:00,26.0,25.0,-100.00,NE,55,6.0,9.0,99,0.00,,,0.00,,2013-03-05 03:42:00,
2013-03-04 21:52:00,26.0,25.0,-100.00,NE,55,6.0,11.0,99,0.00,,,0.00,,2013-03-05 03:52:00,
2013-03-04 22:01:00,26.0,25.0,-100.00,NE,40,6.0,9.0,99,0.00,,,0.00,,2013-03-05 04:01:00,
2013-03-04 22:11:00,25.0,25.0,-100.00,NE,35,6.0,9.0,99,0.00,,,0.00,,2013-03-05 04:11:00,
2013-03-04 22:22:00,25.0,25.0,-100.00,NNE,30,5.0,7.0,99,0.00,,,0.00,,2013-03-05 04:22:00,
2013-03-04 22:32:00,25.0,25.0,-100.00,NE,35,6.0,8.0,99,0.00,,,0.00,,2013-03-05 04:32:00,
2013-03-04 22:42:00,25.0,25.0,-100.00,NE,35,6.0,7.0,99,0.00,,,0.00,,2013-03-05 04:42:00,
2013-03-04 22:51:00,25.0,25.0,-100.00,NE,35,5.0,7.0,99,0.00,,,0.00,,2013-03-05 04:51:00,
2013-03-04 23:01:00,25.0,25.0,-100.00,NE,35,4.0,6.0,99,0.00,,,0.00,,2013-03-05 05:01:00,
2013-03-04 23:11:00,25.0,25.0,-100.00,NE,35,4.0,6.0,99,0.00,,,0.00,,2013-03-05 05:11:00,
2013-03-04 23:22:00,25.0,25.0,-100.00,NNE,30,4.0,6.0,99,0.00,,,0.00,,2013-03-05 05:22:00,
2013-03-04 23:32:00,25.0,25.0,-100.00,NNE,30,3.0,5.0,99,0.00,,,0.00,,2013-03-05 05:32:00,
2013-03-04 23:42:00,25.0,25.0,-100.00,NNE,20,5.0,6.0,99,0.00,,,0.00,,2013-03-05 05:42:00,
2013-03-04 23:52:00,25.0,25.0,-100.00,NNE,15,6.0,7.0,99,0.00,,,0.00,,2013-03-05 05:52:00,